Regional Weather Roundup
Issued by NWS

Home | Current Version | Previous Version | Text Only | Print | Product List | Glossary Off
Versions: 1 2 3 4 5 6 7 8 9 10 11 12 13 14 15 16 17 18 19 20 21 22 23 24 25 26 27 28 29 30 31 32 33 34 35 36 37 38 39 40 41 42 43 44 45 46 47 48 49 50

000
ASUS45 KPSR 280410
RWRAZ

ARIZONA REGIONAL HOURLY WEATHER ROUNDUP
NATIONAL WEATHER SERVICE PHOENIX AZ
900 PM MST WED AUG 27 2014

NOTE: FAIR INDICATES FEW OR NO CLOUDS BELOW 12,000 FEET WITH NO
SIGNIFICANT WEATHER AND/OR OBSTRUCTIONS TO VISIBILITY.

AZZ001>003-036-280500-
NORTHWEST ARIZONA

CITY           SKY/WX    TMP DP  RH WIND       PRES   REMARKS
BULLHEAD CITY  CLEAR     95  43  16 NE3       29.91R
KINGMAN        CLEAR     72  45  37 SE3       30.12R
$$

AZZ004>008-015-016-018-280500-
NORTH CENTRAL ARIZONA

CITY           SKY/WX    TMP DP  RH WIND       PRES   REMARKS
GRAND CANYON     N/A    N/A N/A N/A MISG        N/A
WILLIAMS       PTCLDY    59  50  72 SE5       30.41R
PRESCOTT       CLEAR     67  54  63 S7        30.25R
FLAGSTAFF      LGT RAIN  56  53  90 CALM      30.40R
PAYSON         MOCLDY    64  59  82 CALM      30.27S
PAGE           CLEAR     74  51  44 CALM      30.18R
$$

AZZ009>014-017-280500-
NORTHEAST ARIZONA

CITY           SKY/WX    TMP DP  RH WIND       PRES   REMARKS
WINSLOW        MOCLDY    68  59  73 SW7       30.25R
SAINT JOHNS    MOCLDY    66  54  65 S3        30.28R
SHOW LOW       CLOUDY    63  55  77 CALM      30.36S
$$

AZZ023-280500-
GREATER PHOENIX AREA

CITY           SKY/WX    TMP DP  RH WIND       PRES   REMARKS
PHOENIX        PTCLDY    95  59  30 VRB3      29.91R
BUCKEYE          N/A     88  68  51 CALM      29.92R
LUKE AFB       NOT AVBL
DEER VALLEY    CLEAR     92  58  31 CALM      29.94R
SCOTTSDALE     CLEAR     94  59  31 CALM      29.97R
MESA-GATEWAY   CLEAR     93  54  26 NW5       29.97R
CHANDLER       PTCLDY    95  57  28 W7        29.94R
$$

AZZ027-028-280500-
SOUTHWEST MARICOPA COUNTY AND PINAL COUNTY

CITY           SKY/WX    TMP DP  RH WIND       PRES   REMARKS
CASA GRANDE    CLEAR     90  55  31 CALM      29.97R
GILA BEND      CLEAR     93  50  22 SW5       29.92R
$$

AZZ503-504-507>509-280500-
SOUTHEAST ARIZONA

CITY           SKY/WX    TMP DP  RH WIND       PRES   REMARKS
TUCSON         CLEAR     88  56  33 N6        30.07R
DAVIS-MONTHAN  CLEAR     86  58  39 NW7       30.06R
NOGALES        CLEAR     73  58  59 NE5       30.15R
SIERRA VISTA   PTCLDY    73  57  56 W8        30.23R
DOUGLAS        PTCLDY    71  61  70 NW7       30.16R
SAFFORD        CLEAR     81  55  40 NW9       30.06R
$$

AZZ020-021-025-026-031-280500-
SOUTHWEST ARIZONA

CITY           SKY/WX    TMP DP  RH WIND       PRES   REMARKS
YUMA           CLEAR     98  49  18 SW6       29.86R
$$

CAZ031-033-041-043-047-048-061-280500-
SOUTHERN CALIFORNIA

CITY           SKY/WX    TMP DP  RH WIND       PRES   REMARKS
DOWNTOWN L.A.  CLEAR     75  56  51 W3        29.98R
L.A. AIRPORT   CLEAR     73  59  61 W10       29.99R
SAN DIEGO      CLEAR     80  52  37 N6        30.00R
BURBANK        CLEAR     85  45  24 NW5       30.01R
ONTARIO        CLEAR     83  47  28 SW6       30.02R
RIVERSIDE      CLEAR     83  50  31 W3        30.01R
PALM SPRINGS   CLEAR     97  49  19 NW14G24   29.90R
EL CENTRO NAS  CLEAR     98  46  17 SW12      29.85R
IMPERIAL       CLEAR     96  51  21 SW10      29.84R
BLYTHE         CLEAR     95  54  25 S5        29.87R
NEEDLES        PTCLDY    92  42  17 NW5       29.91R
$$

NVZ020-UTZ003-280500-
SOUTHERN NEVADA-UTAH

CITY           SKY/WX    TMP DP  RH WIND       PRES   REMARKS
LAS VEGAS      CLEAR     90  34  13 S6        29.98R
SALT LAKE CITY MOCLDY    68  50  52 SE9       30.21R
$$

NMZ009-TXZ055-280500-
NEW MEXICO-WEST TEXAS

CITY           SKY/WX    TMP DP  RH WIND       PRES   REMARKS
ALBUQUERQUE    PTCLDY    71  53  52 CALM      30.23R
EL PASO        PTCLDY    77  56  48 W9        30.13F
$$


........................KEY........................
SKY/WX - SKY CONDITION/WEATHER
TMP    - TEMPERATURE IN FAHRENHEIT
DP     - DEW POINT IN FAHRENHEIT
RH     - RELATIVE HUMIDITY IN PERCENT
WIND   - DIRECTION AND SPEED IN MILES PER HOUR (MPH)
VRB    - VARIABLE WIND DIRECTION
PRES   - MEAN SEA LEVEL PRESSURE IN INCHES OF MERCURY
         F - FALLING PRESSURE   R - RISING PRESSURE
         S - STEADY PRESSURE
VSB    - VISIBILITY IN MILES
HX     - HEAT INDEX IN FAHRENHEIT
WCI    - WIND CHILL INDEX IN FAHRENHEIT
TC     - TEMPERATURE IN CELSIUS WHICH IS ALSO KNOWN AS
         TEMPERATURE IN CENTIGRADE
AFB    - AIR FORCE BASE
         LUKE AFB IS LUKE AIR FORCE BASE
         DAVIS-MONTHAN IS DAVIS-MONTHAN AIR FORCE BASE
NAS    - NAVAL AIR STATION
         EL CENTRO NAS IS EL CENTRO NAVAL AIR STATION
N/A    - NOT AVAILABLE


USA.gov is the U.S. government's official web portal to all federal, state and local government web resources and services.